�������l�o���
Date,Time,MP-1(��Sv/h),MP-2(��Sv/h),MP-3(��Sv/h),MP-4(��Sv/h),MP-5(��Sv/h),MP-6(��Sv/h),MP-7(��Sv/h),MP-8(��Sv/h),����,����(m/s),���J
2023/01/27,00:00,0.561,0.815,0.512,1.049,0.721,0.321,0.585,0.554,�k��,6.0,��
2023/01/27,00:10,0.561,0.814,0.513,1.050,0.720,0.321,0.583,0.556,���k��,6.7,��
2023/01/27,00:20,0.562,0.815,0.512,1.050,0.720,0.321,0.584,0.553,���k��,6.0,��
2023/01/27,00:30,0.563,0.814,0.512,1.049,0.717,0.322,0.584,0.556,���k��,4.7,��
2023/01/27,00:40,0.561,0.815,0.512,1.049,0.720,0.322,0.583,0.555,���k��,5.2,��
2023/01/27,00:50,0.559,0.817,0.512,1.049,0.720,0.322,0.583,0.556,���k��,5.0,��
2023/01/27,01:00,0.562,0.813,0.512,1.048,0.720,0.320,0.582,0.556,���k��,5.2,��
2023/01/27,01:10,0.561,0.816,0.512,1.049,0.719,0.322,0.584,0.554,���k��,4.4,��
2023/01/27,01:20,0.560,0.815,0.513,1.050,0.718,0.321,0.584,0.554,��,4.1,��
2023/01/27,01:30,0.563,0.814,0.512,1.049,0.719,0.321,0.582,0.555,��,4.1,��
2023/01/27,01:40,0.561,0.814,0.512,1.048,0.720,0.321,0.583,0.554,��,3.8,��
2023/01/27,01:50,0.562,0.816,0.511,1.051,0.720,0.320,0.584,0.554,���k��,3.3,��
2023/01/27,02:00,0.562,0.814,0.511,1.049,0.720,0.321,0.583,0.555,��,3.4,��
2023/01/27,02:10,0.560,0.816,0.512,1.051,0.719,0.320,0.584,0.555,��,4.9,��
2023/01/27,02:20,0.561,0.815,0.512,1.050,0.720,0.322,0.583,0.553,��,3.2,��
2023/01/27,02:30,0.561,0.814,0.514,1.050,0.719,0.322,0.583,0.554,��,3.0,��
2023/01/27,02:40,0.562,0.816,0.512,1.050,0.720,0.320,0.582,0.556,���k��,3.5,��
2023/01/27,02:50,0.561,0.815,0.511,1.048,0.720,0.323,0.583,0.555,���k��,3.8,��
2023/01/27,03:00,0.561,0.815,0.510,1.049,0.721,0.322,0.584,0.555,���k��,4.4,��
2023/01/27,03:10,0.561,0.814,0.511,1.051,0.719,0.323,0.583,0.554,���k��,4.9,��
2023/01/27,03:20,0.562,0.815,0.512,1.049,0.719,0.321,0.583,0.555,��,3.5,��
2023/01/27,03:30,0.561,0.816,0.512,1.049,0.718,0.321,0.583,0.554,��,3.9,��
2023/01/27,03:40,0.561,0.813,0.513,1.049,0.720,0.321,0.584,0.554,��,3.5,��
2023/01/27,03:50,0.562,0.815,0.511,1.050,0.719,0.322,0.582,0.554,��,3.5,��
2023/01/27,04:00,0.560,0.815,0.513,1.049,0.721,0.321,0.584,0.556,���k��,4.1,��
2023/01/27,04:10,0.561,0.815,0.510,1.048,0.721,0.323,0.583,0.556,���k��,4.1,��
2023/01/27,04:20,0.562,0.814,0.511,1.048,0.720,0.321,0.581,0.558,���k��,3.9,��
2023/01/27,04:30,0.562,0.815,0.512,1.048,0.721,0.322,0.584,0.554,���k��,3.5,��
2023/01/27,04:40,0.562,0.814,0.512,1.049,0.721,0.321,0.584,0.556,���k��,4.4,��
2023/01/27,04:50,0.560,0.815,0.513,1.049,0.719,0.322,0.583,0.556,��,4.5,��
2023/01/27,05:00,0.562,0.815,0.513,1.050,0.721,0.321,0.583,0.556,���k��,4.9,��
2023/01/27,05:10,0.560,0.815,0.514,1.050,0.719,0.322,0.582,0.554,���k��,4.9,��
2023/01/27,05:20,0.561,0.815,0.512,1.051,0.720,0.321,0.583,0.556,���k��,4.9,��
2023/01/27,05:30,0.562,0.816,0.512,1.050,0.722,0.321,0.582,0.555,���k��,6.0,��
2023/01/27,05:40,0.561,0.815,0.512,1.050,0.719,0.321,0.583,0.555,���k��,6.6,��
2023/01/27,05:50,0.561,0.815,0.511,1.047,0.720,0.322,0.584,0.554,���k��,6.9,��
2023/01/27,06:00,0.560,0.814,0.513,1.049,0.718,0.321,0.583,0.555,���k��,7.7,��
2023/01/27,06:10,0.564,0.815,0.511,1.050,0.719,0.321,0.583,0.555,���k��,8.0,��
2023/01/27,06:20,0.561,0.815,0.512,1.049,0.720,0.321,0.583,0.555,���k��,8.3,��
2023/01/27,06:30,0.562,0.815,0.511,1.049,0.718,0.322,0.586,0.554,���k��,8.6,��
2023/01/27,06:40,0.562,0.815,0.512,1.050,0.718,0.322,0.584,0.554,���k��,8.9,��
2023/01/27,06:50,0.562,0.814,0.513,1.048,0.718,0.321,0.583,0.554,���k��,9.1,��
2023/01/27,07:00,0.563,0.814,0.510,1.050,0.719,0.321,0.586,0.557,���k��,7.2,��
2023/01/27,07:10,0.563,0.817,0.511,1.051,0.720,0.321,0.585,0.556,���k��,8.3,��
2023/01/27,07:20,0.560,0.816,0.512,1.049,0.719,0.319,0.585,0.556,��,5.8,��
2023/01/27,07:30,0.562,0.812,0.511,1.051,0.719,0.322,0.585,0.555,��,3.9,��
2023/01/27,07:40,0.560,0.812,0.509,1.051,0.719,0.323,0.585,0.557,���쐼,4.5,��
2023/01/27,07:50,0.562,0.814,0.511,1.050,0.719,0.322,0.585,0.556,���쐼,3.2,��
2023/01/27,08:00,0.561,0.812,0.511,1.049,0.718,0.324,0.584,0.555,���쐼,2.7,��
2023/01/27,08:10,0.563,0.814,0.512,1.052,0.719,0.323,0.585,0.555,��쐼,2.4,��
2023/01/27,08:20,0.563,0.812,0.510,1.048,0.719,0.322,0.584,0.555,���쐼,2.3,��
2023/01/27,08:30,0.562,0.811,0.510,1.051,0.718,0.322,0.584,0.555,�쐼,1.3,��
2023/01/27,08:40,0.564,0.814,0.513,1.050,0.719,0.321,0.584,0.555,���쐼,1.7,��
2023/01/27,08:50,0.562,0.814,0.512,1.049,0.718,0.321,0.585,0.555,��,3.4,��
2023/01/27,09:00,0.563,0.815,0.512,1.050,0.718,0.322,0.585,0.556,��,2.7,��
2023/01/27,09:10,0.562,0.812,0.512,1.050,0.719,0.321,0.584,0.554,��,2.2,��
2023/01/27,09:20,0.563,0.814,0.513,1.050,0.719,0.322,0.586,0.555,��,2.6,��
2023/01/27,09:30,0.564,0.813,0.512,1.050,0.718,0.322,0.585,0.554,���쐼,1.6,��
2023/01/27,09:40,0.562,0.814,0.511,1.050,0.722,0.322,0.583,0.556,�쐼,1.3,��
2023/01/27,09:50,0.562,0.814,0.512,1.050,0.719,0.323,0.586,0.555,���쐼,1.2,��
2023/01/27,10:00,0.563,0.816,0.512,1.051,0.720,0.322,0.585,0.556,-,CALM,��
2023/01/27,10:10,0.564,0.814,0.512,1.050,0.719,0.324,0.585,0.554,�k��,0.9,��
2023/01/27,10:20,0.563,0.815,0.513,1.050,0.720,0.322,0.586,0.554,���k��,1.6,��
2023/01/27,10:30,0.564,0.813,0.513,1.049,0.721,0.323,0.586,0.555,�k�k��,0.7,��
2023/01/27,10:40,0.563,0.817,0.513,1.050,0.721,0.323,0.584,0.553,�k,1.7,��
2023/01/27,10:50,0.565,0.815,0.513,1.051,0.721,0.323,0.585,0.555,�k�k��,1.9,��
2023/01/27,11:00,0.565,0.815,0.512,1.051,0.721,0.323,0.586,0.555,�k,2.2,��
2023/01/27,11:10,0.564,0.816,0.512,1.051,0.721,0.321,0.585,0.555,�k,3.0,��
2023/01/27,11:20,0.563,0.815,0.513,1.051,0.720,0.322,0.585,0.556,�k,3.3,��
2023/01/27,11:30,0.565,0.815,0.514,1.050,0.722,0.323,0.585,0.555,�k�k��,3.4,��
2023/01/27,11:40,0.566,0.815,0.513,1.050,0.722,0.323,0.586,0.555,�k�k��,3.4,��
2023/01/27,11:50,0.565,0.816,0.515,1.051,0.722,0.323,0.584,0.556,�k,3.1,��
2023/01/27,12:00,0.566,0.817,0.514,1.053,0.723,0.324,0.586,0.557,�k,2.6,��
2023/01/27,12:10,0.566,0.817,0.513,1.049,0.722,0.322,0.586,0.557,�k,1.8,��
2023/01/27,12:20,0.565,0.817,0.512,1.050,0.721,0.323,0.584,0.556,�k,2.4,��
2023/01/27,12:30,0.565,0.816,0.515,1.050,0.721,0.324,0.587,0.557,�k,1.8,��
2023/01/27,12:40,0.566,0.818,0.514,1.053,0.723,0.324,0.585,0.557,�k,1.9,��
2023/01/27,12:50,0.566,0.816,0.514,1.052,0.721,0.323,0.586,0.556,�k,2.7,��
2023/01/27,13:00,0.565,0.816,0.514,1.054,0.724,0.323,0.586,0.557,�k,2.8,��
2023/01/27,13:10,0.566,0.816,0.514,1.050,0.722,0.323,0.586,0.555,�k,3.0,��
2023/01/27,13:20,0.565,0.817,0.515,1.053,0.722,0.323,0.585,0.558,�k,3.2,��
2023/01/27,13:30,0.564,0.814,0.514,1.052,0.722,0.323,0.587,0.556,�k�k��,2.9,��
2023/01/27,13:40,0.564,0.817,0.512,1.052,0.722,0.322,0.587,0.556,�k,2.7,��
2023/01/27,13:50,0.566,0.816,0.513,1.052,0.723,0.323,0.586,0.556,�k�k��,2.5,��
2023/01/27,14:00,0.564,0.814,0.512,1.052,0.724,0.322,0.586,0.556,�k,2.7,��
2023/01/27,14:10,0.564,0.816,0.510,1.052,0.721,0.323,0.586,0.557,�k�k��,2.5,��
2023/01/27,14:20,0.567,0.817,0.514,1.051,0.721,0.321,0.585,0.556,�k,2.3,��
2023/01/27,14:30,0.565,0.815,0.515,1.054,0.723,0.321,0.585,0.556,�k,2.2,��
2023/01/27,14:40,0.564,0.817,0.515,1.052,0.724,0.323,0.585,0.557,�k,1.9,��
2023/01/27,14:50,0.565,0.818,0.515,1.052,0.722,0.324,0.586,0.557,�k,2.2,��
2023/01/27,15:00,0.566,0.816,0.515,1.052,0.719,0.323,0.587,0.556,�k�k��,3.0,��
2023/01/27,15:10,0.566,0.816,0.515,1.051,0.722,0.323,0.587,0.556,�k�k��,3.4,��
2023/01/27,15:20,0.565,0.815,0.515,1.050,0.723,0.322,0.587,0.557,�k�k��,3.3,��
2023/01/27,15:30,0.565,0.817,0.514,1.052,0.724,0.324,0.586,0.556,�k�k��,3.4,��
2023/01/27,15:40,0.565,0.817,0.515,1.054,0.724,0.323,0.587,0.555,�k�k��,3.6,��
2023/01/27,15:50,0.566,0.817,0.515,1.053,0.722,0.325,0.584,0.556,�k�k��,3.8,��
2023/01/27,16:00,0.566,0.818,0.515,1.053,0.724,0.324,0.588,0.555,�k�k��,3.9,�L
2023/01/27,16:10,0.567,0.820,0.516,1.054,0.724,0.324,0.588,0.556,�k�k��,3.5,�L
2023/01/27,16:20,0.565,0.820,0.518,1.054,0.723,0.324,0.588,0.557,�k�k��,4.1,�L
2023/01/27,16:30,0.566,0.818,0.517,1.051,0.724,0.327,0.584,0.557,�k��,5.0,�L
2023/01/27,16:40,0.569,0.819,0.518,1.052,0.724,0.323,0.587,0.558,�k��,4.2,�L
2023/01/27,16:50,0.566,0.820,0.517,1.054,0.722,0.326,0.586,0.557,�k��,4.1,�L
2023/01/27,17:00,0.567,0.817,0.516,1.053,0.723,0.324,0.586,0.556,�k��,4.9,�L
2023/01/27,17:10,0.566,0.817,0.516,1.053,0.723,0.325,0.586,0.556,�k��,4.1,�L
2023/01/27,17:20,0.566,0.818,0.516,1.054,0.723,0.324,0.585,0.556,�k��,5.5,�L
2023/01/27,17:30,0.565,0.818,0.516,1.054,0.723,0.322,0.586,0.556,�k��,6.0,�L
2023/01/27,17:40,0.565,0.818,0.515,1.053,0.723,0.323,0.585,0.556,�k��,5.8,�L
2023/01/27,17:50,0.565,0.817,0.515,1.054,0.721,0.323,0.584,0.555,�k��,7.2,�L
2023/01/27,18:00,0.565,0.818,0.514,1.050,0.722,0.324,0.584,0.557,�k��,8.0,�L
2023/01/27,18:10,0.565,0.813,0.513,1.051,0.721,0.323,0.586,0.558,�k��,7.1,�L
2023/01/27,18:20,0.564,0.810,0.513,1.049,0.720,0.322,0.586,0.556,�k��,8.0,�L
2023/01/27,18:30,0.561,0.811,0.512,1.047,0.717,0.323,0.585,0.555,�k��,9.4,�L
2023/01/27,18:40,0.562,0.807,0.511,1.045,0.715,0.323,0.583,0.555,�k��,7.7,�L
2023/01/27,18:50,0.561,0.804,0.510,1.046,0.713,0.324,0.583,0.555,�k��,8.3,�L
2023/01/27,19:00,0.558,0.803,0.509,1.043,0.710,0.322,0.579,0.554,�k�k��,8.6,�L
2023/01/27,19:10,0.559,0.800,0.507,1.044,0.707,0.325,0.578,0.555,�k�k��,9.4,�L
2023/01/27,19:20,0.557,0.799,0.507,1.037,0.705,0.323,0.577,0.553,�k�k��,10.4,�L
2023/01/27,19:30,0.556,0.795,0.505,1.037,0.703,0.322,0.577,0.554,�k�k��,10.2,�L
2023/01/27,19:40,0.554,0.792,0.502,1.035,0.700,0.320,0.576,0.552,�k�k��,10.4,�L
2023/01/27,19:50,0.553,0.788,0.503,1.030,0.701,0.320,0.575,0.554,�k�k��,10.8,�L
2023/01/27,20:00,0.550,0.790,0.503,1.030,0.697,0.320,0.575,0.553,�k�k��,10.1,�L
2023/01/27,20:10,0.550,0.789,0.502,1.028,0.695,0.320,0.576,0.553,�k��,10.5,�L
2023/01/27,20:20,0.550,0.786,0.499,1.027,0.695,0.320,0.576,0.552,�k�k��,11.3,�L
2023/01/27,20:30,0.550,0.783,0.499,1.025,0.692,0.318,0.576,0.552,�k�k��,11.1,�L
2023/01/27,20:40,0.549,0.785,0.499,1.024,0.692,0.319,0.576,0.552,�k�k��,10.8,�L
2023/01/27,20:50,0.547,0.782,0.498,1.023,0.689,0.318,0.575,0.553,�k�k��,11.0,�L
2023/01/27,21:00,0.545,0.783,0.498,1.024,0.689,0.318,0.575,0.550,�k�k��,8.8,�L
2023/01/27,21:10,0.545,0.781,0.496,1.019,0.689,0.318,0.573,0.551,�k�k��,10.4,�L
2023/01/27,21:20,0.544,0.780,0.497,1.020,0.689,0.317,0.574,0.549,�k�k��,11.0,�L
2023/01/27,21:30,0.544,0.779,0.497,1.019,0.688,0.317,0.574,0.552,�k�k��,9.7,��
2023/01/27,21:40,0.545,0.779,0.497,1.020,0.690,0.317,0.572,0.550,�k�k��,10.5,��
2023/01/27,21:50,0.545,0.778,0.497,1.021,0.688,0.315,0.572,0.550,�k�k��,11.1,�L
2023/01/27,22:00,0.546,0.780,0.498,1.019,0.687,0.317,0.574,0.551,�k�k��,10.8,�L
2023/01/27,22:10,0.547,0.780,0.498,1.022,0.689,0.317,0.574,0.551,�k�k��,11.0,�L
2023/01/27,22:20,0.545,0.779,0.498,1.020,0.689,0.317,0.573,0.551,�k�k��,8.9,��
2023/01/27,22:30,0.547,0.779,0.498,1.018,0.690,0.317,0.575,0.551,�k�k��,7.7,��
2023/01/27,22:40,0.545,0.778,0.499,1.019,0.690,0.317,0.575,0.550,�k�k��,8.0,��
2023/01/27,22:50,0.545,0.779,0.497,1.019,0.689,0.319,0.577,0.551,�k��,8.0,��
2023/01/27,23:00,0.544,0.779,0.497,1.019,0.688,0.318,0.577,0.549,�k�k��,7.8,��
2023/01/27,23:10,0.545,0.781,0.497,1.019,0.688,0.318,0.574,0.549,�k�k��,9.1,��
2023/01/27,23:20,0.544,0.779,0.497,1.017,0.688,0.317,0.576,0.549,�k�k��,7.7,��
2023/01/27,23:30,0.543,0.777,0.497,1.018,0.687,0.317,0.575,0.550,�k,8.3,��
2023/01/27,23:40,0.542,0.778,0.495,1.018,0.688,0.318,0.575,0.550,�k,6.7,��
2023/01/27,23:50,0.542,0.778,0.497,1.018,0.687,0.316,0.575,0.550,�k,7.1,��
